Regional Weather Roundup
Issued by NWS Charleston, WV

Home | Current Version | Previous Version | Text Only | Print | Product List | Glossary Off
Versions: 1 2 3 4 5 6 7 8 9 10 11 12 13 14 15 16 17 18 19 20 21 22 23 24 25 26 27 28 29 30 31 32 33 34 35 36 37 38 39 40 41 42 43 44 45 46 47 48 49 50

643
ASUS41 KRLX 281310
RWRRLX
West Virginia Regional Weather Roundup
National Weather Service Charleston WV
900 AM EDT TUE MAR 28 2017

Note: "fair" indicates few or no clouds below 12,000 feet with no
significant weather and/or obstructions to visibility.

WVZ003-281400-
Northern Panhandle of West Virginia

CITY           SKY/WX    TMP DP  RH WIND       PRES   REMARKS
WHEELING       CLOUDY    56  53  90 S8        29.87R
$$

WVZ009-281400-
Northwest West Virginia

CITY           SKY/WX    TMP DP  RH WIND       PRES   REMARKS
PARKERSBURG    CLOUDY    57  55  93 VRB3      29.91R
$$

WVZ006-281400-
Western West Virginia

CITY           SKY/WX    TMP DP  RH WIND       PRES   REMARKS
HUNTINGTON     CLOUDY    56  54  93 SW3       29.90R
$$

WVZ015-281400-
West Central West Virginia

CITY           SKY/WX    TMP DP  RH WIND       PRES   REMARKS
CHARLESTON     CLOUDY    56  54  93 SW6       29.90R
$$

WVZ022-031-281400-
North Central West Virginia

CITY           SKY/WX    TMP DP  RH WIND       PRES   REMARKS
CLARKSBURG     CLOUDY    56  54  93 CALM      29.89R
MORGANTOWN     CLOUDY    56  54  93 CALM      29.89S
$$

WVZ025-035-042-045-281400-
Southern West Virginia

CITY           SKY/WX    TMP DP  RH WIND       PRES   REMARKS
BECKLEY        LGT RAIN  54  52  93 SW5       29.92S
LOGAN          CLOUDY    55  54  94 W9        29.92R
BLUEFIELD      NOT AVBL
LEWISBURG      CLOUDY    52  51  99 CALM      29.93R FOG
$$

WVZ047-281400-
Northern Mountains of West Virginia

CITY           SKY/WX    TMP DP  RH WIND       PRES   REMARKS
ELKINS         LGT RAIN  54  52  93 CALM      29.91S
$$

WVZ052-281400-
Eastern Panhandle of West Virginia

CITY           SKY/WX    TMP DP  RH WIND       PRES   REMARKS
MARTINSBURG    LGT RAIN  53  52  96 CALM      29.87R VSB 1
PETERSBURG     LGT RAIN  55  55  99 CALM      29.89S
$$




USA.gov is the U.S. government's official web portal to all federal, state and local government web resources and services.